STARLINK-31665, 59655

Orbit data source: Space-Track

STARLINK-31665, 59655 is a payload satellite owned by SpaceX/Seattle (US) in LEO that was launched on Mon, 06 May 2024 UTC via an FALCON 9 launch vehicle from the Air Force Eastern Test Range (AFETR). Payload-class satellites include a variety of spacecraft equipped with specific instruments for various scientific and technological missions. These include communications satellites like Starlink; space stations such as the ISS; scientific satellites like the Hubble; Earth observation satellites from companies like Planet Labs, Umbra, and HawkEye 360; GPS; miniature CubeSats for education and research; and military/defense satellites.

Loading next visibility...
Identifier
59655, 2024-084B
Orbit
LEO
Last TLE update
17 hours ago
Origin
Manufacturer
SpaceX/Seattle
Mission
Operational spacecraft
Bus & Motor
STARLINK V2M, Unknown motor
Mass
730 kg wet, ~700 kg dry
Launch date (UTC)
2024-05-06 (1 year ago)
Launch vehicle
FALCON 9
Launch site
Air Force Eastern Test Range (AFETR)
Object type
Payload
Rocket body
Debris
Shape & HBR
Unknown
Radar Cross Section
Large (>1 m²)

Expand to show TLE details & history

TLE from 17 hours ago
0 STARLINK-31665
1 59655U 24084B   25186.46211840  .00002117  00000-0  86454-4 0  9998
2 59655  43.0054 354.4879 0001737 277.0753  82.9901 15.27572238 66606
Epoch: 2025-07-05T11:05Z
TLE epoch observation values (Epoch: 2025-07-05T11:05:27.029Z)
Latitude
-0.00004°
Longitude
-95.57458°
Altitude
482.703 km
Speed
7.626 km/s
True Right ascension
23h 37m 57s
True Declination
0° 00' 00"
Sunlit
Object was in daylight at epoch
Visualization orbit readout
Latitude
-36.91426°
Longitude
133.70758°
Altitude
492.932 km
Speed
7.619 km/s
Apparent Right ascension
11h 08m 33s
Apparent Declination
-80° 48' 54"
Sunlit
Object is in full shadow
Visualization observer readout
Local Sidereal Time
15:47:11
Azimuth
190.691° SSW
Elevation
-36.219°
Doppler factor
1
Orbital elements
Apogee altitude
486.209 km
Perigee altitude
483.824 km
Semi-major axis
6,863.154 km
Eccentricity
0.00017
Inclination
43.0054°
RAAN
354.4879°
Arg. of periapsis
277.0753°
True anomaly
Unknown
Mean anomaly
82.9901°
Eccentric anomaly
Unknown
Mean motion
3.81731 °/min
Orbital period
94.31 mins
BSTAR
0.000086454
Loading maneuver chart data...
Loading SW <> Apogee altitude chart data...
Loading historical data...
Loading historical data...
Loading historical data...
Loading historical data...
Loading historical data...
Loading historical data...
Loading historical data...

STARLINK-31665 Visibility forecast

Observer location: undefined°, undefined°

Span
Click to sort rows by Start time (UTC) header in descending order
Start Az.
Max El. time (UTC)
Max El. Az.
Max El.
End time (UTC)
End Az.
5 mins2025-07-06 13:58:06.591Z198.569° SSW2025-07-06 14:00:06.591Z157.822° S24.492°2025-07-06 14:03:06.591Z93.081° ESE
5 mins2025-07-06 15:37:06.591Z258.717° W2025-07-06 15:39:06.591Z324.076° NNW44.484°2025-07-06 15:42:06.591Z70.226° E
5 mins2025-07-06 17:16:06.591Z291.994° WNW2025-07-06 17:18:06.591Z345.648° N37.612°2025-07-06 17:21:06.591Z74.713° E
6 mins2025-07-06 18:55:06.591Z287.588° WNW2025-07-06 18:57:06.591Z281.569° WNW43.422°2025-07-06 19:01:06.591Z110.51° ESE
|